Weather History for LIRA - November, 2012

Change the Weather History Date:

Sunday, November 18, 2012

  Actual Average Record
Temperature  
Mean Temperature 58 °F -  
Max Temperature 62 °F 57 °F 68 °F (2003)
Min Temperature 53 °F 41 °F 33 °F (1998)
Degree Days  
Heating Degree Days 8    
Growing Degree Days 8 (Base 50)    
Moisture  
Dew Point 56 °F    
Average Humidity 97    
Maximum Humidity 100    
Minimum Humidity 88    
Precipitation  
Precipitation 0.00 in 0.16 in - ()
Sea Level Pressure  
Sea Level Pressure 29.85 in    
Wind  
Wind Speed 3 mph ()    
Max Wind Speed 10 mph    
Max Gust Speed -    
Visibility 5.0 miles    
Events Rain    
Averages and records for this station are not official NWS values.
T = Trace of Precipitation, MM = Missing Value Source: Averaged Metar Reports

Daily Weather History Graph

Daily Weather History Graph

Search for Another Location

Airport or City:

Trip Planner

Search our weather history database for the weather conditions in past years. The results will help you decide how hot, cold, wet, or windy it might be!

Date:

Astronomy

Nov. 18, 2012 Rise Set
Actual Time 7:02 AM CET 4:46 PM CET
Civil Twilight 6:32 AM CET 5:16 PM CET
Nautical Twilight 5:58 AM CET 5:50 PM CET
Astronomical Twilight 5:25 AM CET 6:23 PM CET
Moon 11:17 AM CET (11/18) 9:47 PM CET (11/18)
Length of Visible Light 10h 43m
Length of Day
9h 43m
Waxing Crescent, 27% of the Moon is Illuminated
Nov 18
Waxing Crescent
Nov 20
First Quarter
Nov 28
Full
Dec 6
Last Quarter
Dec 13
New

Hourly Weather History & Observations

Time (CET) Temp. Dew Point Humidity Pressure Visibility Wind Dir Wind Speed Gust Speed Precip Events Conditions
12:15 AM 55.4 °F 55.4 °F 100% 29.92 in 3.1 mi North 4.6 mph - N/A Rain Light Rain
12:45 AM 55.4 °F 55.4 °F 100% 29.92 in 3.1 mi NNW 3.5 mph - N/A Rain Light Rain
1:15 AM 53.6 °F 53.6 °F 100% 29.92 in 3.1 mi North 5.8 mph - N/A Rain Light Rain
1:45 AM 53.6 °F 53.6 °F 100% 29.92 in 3.1 mi NNW 3.5 mph - N/A Rain Light Rain
2:15 AM 53.6 °F 53.6 °F 100% 29.92 in 3.1 mi NNE 3.5 mph - N/A Rain Light Rain
2:45 AM 53.6 °F 53.6 °F 100% 29.92 in 3.1 mi NNE 4.6 mph - N/A Rain Light Rain
3:15 AM 53.6 °F 53.6 °F 100% 29.89 in 3.1 mi NE 4.6 mph - N/A Rain Light Rain
3:45 AM 53.6 °F 53.6 °F 100% 29.89 in 2.5 mi ENE 8.1 mph - N/A Rain Rain
4:15 AM 53.6 °F 53.6 °F 100% 29.89 in 3.1 mi NE 5.8 mph - N/A Rain Rain
4:45 AM 53.6 °F 53.6 °F 100% 29.86 in 4.3 mi Calm Calm - N/A Rain Light Rain
5:15 AM 53.6 °F 53.6 °F 100% 29.86 in 5.0 mi NNE 1.2 mph - N/A Rain Light Rain
5:45 AM 53.6 °F 53.6 °F 100% 29.86 in 5.6 mi Calm Calm - N/A Rain Light Rain
6:15 AM 53.6 °F 53.6 °F 100% 29.86 in 4.3 mi North 1.2 mph - N/A   Scattered Clouds
6:45 AM 53.6 °F 53.6 °F 100% 29.86 in 4.3 mi NNE 1.2 mph - N/A   Scattered Clouds
7:15 AM 53.6 °F 53.6 °F 100% 29.86 in 4.3 mi Calm Calm - N/A   Scattered Clouds
7:45 AM 53.6 °F 53.6 °F 100% 29.86 in 4.3 mi North 1.2 mph - N/A   Scattered Clouds
8:15 AM 53.6 °F 53.6 °F 100% 29.86 in 5.0 mi Calm Calm - N/A   Mostly Cloudy
8:45 AM 53.6 °F 53.6 °F 100% 29.86 in 5.0 mi Calm Calm - N/A   Mostly Cloudy
9:15 AM 55.4 °F 55.4 °F 100% 29.86 in 5.0 mi Calm Calm - N/A   Mostly Cloudy
9:45 AM 57.2 °F 57.2 °F 100% 29.86 in 6.2 mi NW 1.2 mph - N/A   Mostly Cloudy
10:15 AM 57.2 °F 57.2 °F 100% 29.86 in 6.2 mi NW 1.2 mph - N/A   Mostly Cloudy
10:45 AM 59.0 °F 59.0 °F 100% 29.86 in 6.2 mi Calm Calm - N/A   Mostly Cloudy
11:15 AM 59.0 °F 59.0 °F 100% 29.86 in 6.2 mi NW 2.3 mph - N/A   Mostly Cloudy
11:45 AM 60.8 °F 59.0 °F 94% 29.86 in 6.2 mi Calm Calm - N/A   Mostly Cloudy
12:15 PM 60.8 °F 60.8 °F 100% 29.86 in 6.2 mi Calm Calm - N/A   Mostly Cloudy
12:45 PM 60.8 °F 60.8 °F 100% 29.83 in 6.2 mi Calm Calm - N/A   Mostly Cloudy
1:15 PM 60.8 °F 59.0 °F 94% 29.83 in 6.2 mi ESE 5.8 mph - N/A   Mostly Cloudy
1:45 PM 62.6 °F 59.0 °F 88% 29.83 in 6.2 mi ESE 6.9 mph - N/A   Mostly Cloudy
2:15 PM 62.6 °F 59.0 °F 88% 29.83 in 6.2 mi ESE 5.8 mph - N/A   Mostly Cloudy
2:45 PM 62.6 °F 59.0 °F 88% 29.80 in 6.2 mi ENE 2.3 mph - N/A   Mostly Cloudy
3:15 PM 60.8 °F 59.0 °F 94% 29.80 in 6.2 mi East 3.5 mph - N/A   Mostly Cloudy
3:45 PM 60.8 °F 59.0 °F 94% 29.80 in 6.2 mi ESE 8.1 mph - N/A   Mostly Cloudy
4:15 PM 60.8 °F 57.2 °F 88% 29.80 in 6.2 mi ESE 8.1 mph - N/A   Mostly Cloudy
4:45 PM 59.0 °F 57.2 °F 94% 29.80 in 6.2 mi ESE 10.4 mph - N/A   Mostly Cloudy
5:15 PM 59.0 °F 57.2 °F 94% 29.80 in 6.2 mi East 8.1 mph - N/A   Mostly Cloudy
5:45 PM 59.0 °F 57.2 °F 94% 29.80 in 6.2 mi NE 1.2 mph - N/A   Mostly Cloudy
6:15 PM 57.2 °F 55.4 °F 94% 29.80 in 6.2 mi NE 3.5 mph - N/A   Mostly Cloudy
6:45 PM 57.2 °F 55.4 °F 94% 29.80 in 6.2 mi NE 3.5 mph - N/A   Mostly Cloudy
7:15 PM 57.2 °F 55.4 °F 94% 29.83 in 6.2 mi ENE 5.8 mph - N/A   Scattered Clouds
7:45 PM 57.2 °F 55.4 °F 94% 29.83 in 6.2 mi SSE 2.3 mph - N/A   Scattered Clouds
8:15 PM 57.2 °F 55.4 °F 94% 29.83 in 6.2 mi WNW 2.3 mph - N/A   Scattered Clouds
8:45 PM 57.2 °F 55.4 °F 94% 29.83 in 6.2 mi Calm Calm - N/A   Scattered Clouds
9:15 PM 57.2 °F 55.4 °F 94% 29.83 in 6.2 mi West 1.2 mph - N/A   Scattered Clouds
9:45 PM 57.2 °F 55.4 °F 94% 29.86 in 3.7 mi West 1.2 mph - N/A Rain Light Rain
10:15 PM 57.2 °F 55.4 °F 94% 29.86 in 3.7 mi WSW 2.3 mph - N/A Rain Light Rain
10:21 PM - - N/A% - 3.1 mi NNW 2.3 mph - N/A Rain Light Rain
10:45 PM 55.4 °F 55.4 °F 100% 29.86 in 3.7 mi NNE 2.3 mph - N/A Rain Light Rain
11:15 PM 55.4 °F 55.4 °F 100% 29.83 in 3.7 mi NNE 3.5 mph - N/A Rain Light Rain
11:45 PM 55.4 °F 55.4 °F 100% 29.83 in 4.3 mi NNE 5.8 mph - N/A Rain Light Rain